Kiruna, Sweden

9:50 AM CEST on March 28, 2017 (GMT +0200)
Kiruna

Weather History for ESNQ - September, 2013

Change the Weather History Date:

Saturday, September 7, 2013

  Actual Average Record
Temperature  
Mean Temperature 46 °F -  
Max Temperature 55 °F - - ()
Min Temperature 35 °F - - ()
Degree Days  
Heating Degree Days 19    
Moisture  
Dew Point 41 °F    
Average Humidity 74    
Maximum Humidity 93    
Minimum Humidity 54    
Precipitation  
Precipitation 0.00 in - - ()
Sea Level Pressure  
Sea Level Pressure 30.05 in    
Wind  
Wind Speed 6 mph ()    
Max Wind Speed 13 mph    
Max Gust Speed -    
Visibility 6.2 miles    
Events Rain    
T = Trace of Precipitation, MM = Missing Value Source: Averaged Metar Reports

Daily Weather History Graph

Daily Weather History Graph

Search for Another Location

Airport or City:

Trip Planner

Search our weather history database for the weather conditions in past years. The results will help you decide how hot, cold, wet, or windy it might be!

Date:

Astronomy

Sep. 07, 2013 Rise Set
Actual Time 5:27 AM CEST 7:43 PM CEST
Civil Twilight 4:26 AM CEST 8:43 PM CEST
Nautical Twilight 2:58 AM CEST 10:09 PM CEST
Astronomical Twilight 1:09 AM CEST 12:04 AM CEST
Moon 8:42 AM CEST (9/7) 7:01 PM CEST (9/7)
Length of Visible Light 16h 17m
Length of Day
14h 16m
Waxing Crescent, 4% of the Moon is Illuminated
Sep 7
Waxing Crescent
Sep 12
First Quarter
Sep 19
Full
Sep 27
Last Quarter
Oct 5
New

Hourly Weather History & Observations

Time (CEST) Temp. Windchill Dew Point Humidity Pressure Visibility Wind Dir Wind Speed Gust Speed Precip Events Conditions
12:20 AM 51.8 °F - 48.2 °F 88% 29.83 in 6.2 mi SSW 11.5 mph - N/A   Mostly Cloudy
12:50 AM 51.8 °F - 48.2 °F 88% 29.83 in 6.2 mi SSW 10.4 mph - N/A   Overcast
1:20 AM 53.6 °F - 48.2 °F 82% 29.83 in 6.2 mi SSW 11.5 mph - N/A   Overcast
1:50 AM 53.6 °F - 48.2 °F 82% 29.83 in 6.2 mi SSW 11.5 mph - N/A   Overcast
2:20 AM 55.4 °F - 48.2 °F 77% 29.86 in 6.2 mi NNW 6.9 mph - N/A   Overcast
2:50 AM 50.0 °F - 46.4 °F 87% 29.86 in 6.2 mi North 6.9 mph - N/A   Drizzle
3:20 AM 50.0 °F - 46.4 °F 87% 29.86 in 6.2 mi NE 2.3 mph - N/A Rain Light Rain
3:50 AM 48.2 °F - 46.4 °F 93% 29.89 in 6.2 mi Calm Calm - N/A   Mostly Cloudy
4:20 AM 48.2 °F - 46.4 °F 93% 29.89 in 6.2 mi NE 5.8 mph - N/A   Overcast
4:50 AM 46.4 °F 44.3 °F 44.6 °F 93% 29.89 in 6.2 mi NE 4.6 mph - N/A   Scattered Clouds
5:20 AM 44.6 °F - 42.8 °F 93% 29.92 in 6.2 mi Variable 1.2 mph - N/A   Unknown
5:50 AM 44.6 °F 41.4 °F 42.8 °F 93% 29.92 in 6.2 mi SSW 5.8 mph - N/A   Unknown
6:20 AM 42.8 °F 39.3 °F 41.0 °F 93% 29.92 in - South 5.8 mph - N/A   Clear
6:50 AM 46.4 °F 41.9 °F 39.2 °F 76% 29.95 in - WSW 9.2 mph - N/A   Clear
7:20 AM 48.2 °F - 41.0 °F 76% 29.95 in - SSW 4.6 mph - N/A   Clear
7:50 AM 50.0 °F - 39.2 °F 66% 29.98 in - SSW 9.2 mph - N/A   Clear
8:20 AM 51.8 °F - 39.2 °F 62% 29.98 in - West 5.8 mph - N/A   Clear
8:50 AM 51.8 °F - 39.2 °F 62% 30.01 in - Variable 2.3 mph - N/A   Clear
9:20 AM 51.8 °F - 39.2 °F 62% 30.01 in 6.2 mi NNE 5.8 mph - N/A   Partly Cloudy
9:50 AM 51.8 °F - 41.0 °F 67% 30.04 in 6.2 mi NE 6.9 mph - N/A   Scattered Clouds
10:20 AM 51.8 °F - 41.0 °F 67% 30.04 in 6.2 mi NNE 4.6 mph - N/A   Mostly Cloudy
10:50 AM 51.8 °F - 42.8 °F 71% 30.06 in 6.2 mi NNE 4.6 mph - N/A   Mostly Cloudy
11:20 AM 53.6 °F - 42.8 °F 67% 30.06 in 6.2 mi NE 4.6 mph - N/A   Mostly Cloudy
11:50 AM 53.6 °F - 42.8 °F 67% 30.06 in 6.2 mi NNE 5.8 mph - N/A   Mostly Cloudy
12:20 PM 53.6 °F - 41.0 °F 62% 30.09 in 6.2 mi North 8.1 mph - N/A   Scattered Clouds
12:50 PM 53.6 °F - 39.2 °F 58% 30.09 in - North 8.1 mph - N/A   Clear
1:20 PM 55.4 °F - 41.0 °F 58% 30.12 in 6.2 mi NNE 10.4 mph - N/A   Partly Cloudy
1:50 PM 55.4 °F - 41.0 °F 58% 30.12 in 6.2 mi North 6.9 mph - N/A   Mostly Cloudy
2:20 PM 55.4 °F - 39.2 °F 54% 30.12 in 6.2 mi North 8.1 mph - N/A   Partly Cloudy
2:50 PM 55.4 °F - 39.2 °F 54% 30.12 in - North 9.2 mph - N/A   Clear
3:20 PM 55.4 °F - 39.2 °F 54% 30.12 in 6.2 mi NNE 11.5 mph - N/A   Unknown
3:50 PM 55.4 °F - 39.2 °F 54% 30.15 in 6.2 mi NNE 12.7 mph - N/A   Unknown
4:20 PM 53.6 °F - 39.2 °F 58% 30.15 in 6.2 mi NNE 10.4 mph - N/A   Unknown
4:50 PM 53.6 °F - 39.2 °F 58% 30.15 in - NNE 9.2 mph - N/A   Clear
5:20 PM 53.6 °F - 39.2 °F 58% 30.15 in 6.2 mi NNE 6.9 mph - N/A   Unknown
5:50 PM 53.6 °F - 39.2 °F 58% 30.15 in 6.2 mi NNE 6.9 mph - N/A   Unknown
6:20 PM 51.8 °F - 39.2 °F 62% 30.15 in 6.2 mi NNE 6.9 mph - N/A   Unknown
6:50 PM 51.8 °F - 39.2 °F 62% 30.15 in 6.2 mi North 4.6 mph - N/A   Unknown
7:20 PM 50.0 °F - 37.4 °F 62% 30.18 in 6.2 mi NE 3.5 mph - N/A   Unknown
7:50 PM 48.2 °F - 39.2 °F 71% 30.18 in 6.2 mi Variable 2.3 mph - N/A   Unknown
8:20 PM 44.6 °F - 37.4 °F 76% 30.18 in 6.2 mi Calm Calm - N/A   Unknown
8:50 PM 41.0 °F - 35.6 °F 81% 30.18 in 6.2 mi SW 1.2 mph - N/A   Unknown
9:20 PM 39.2 °F 37.0 °F 35.6 °F 87% 30.18 in 6.2 mi SW 3.5 mph - N/A   Unknown
9:50 PM 39.2 °F 35.9 °F 35.6 °F 87% 30.21 in 6.2 mi SSW 4.6 mph - N/A   Unknown
10:20 PM 37.4 °F 33.8 °F 33.8 °F 87% 30.21 in 6.2 mi SSW 4.6 mph - N/A   Unknown
10:50 PM 37.4 °F 33.8 °F 35.6 °F 93% 30.21 in 6.2 mi SSW 4.6 mph - N/A   Unknown
11:20 PM 37.4 °F 32.8 °F 35.6 °F 93% 30.21 in 6.2 mi SSW 5.8 mph - N/A   Unknown
11:50 PM 35.6 °F 31.7 °F 33.8 °F 93% 30.21 in 6.2 mi SW 4.6 mph - N/A   Unknown